[[{"header":{"parameterUnit":"m.s-1","parameterCategory":1,"la1":30.2991,"la2":30.254,"lo1":-89.0895,"lo2":-89.0444,"dy":0.0017,"dx":0.0017,"nx":28,"ny":28,"refTime":"2025-05-25T21:00:00:Z","depth":0,"parameterNumber":2,"parameterNumberName":"U-component_of_WINDS"},"data":[0,0,0,0,0,0,0,0,0,0,0,0,0,0,0,0,0,0,0,0,0,0,0,0,0,0,0,0,0,0,0,0,0,0,0,0,0,0,0,0,0,0,0,0,0,0,0,0,0,0,0,0,0,0,0,0,0,0,0.0247,0.0247,0,0.0229,0.0229,0.0229,0.0213,0.0213,0.0212,0.0212,0.0194,0.0194,0.0193,0,0,0,0,0,0,0,0,0,0,0,0,0,0.0267,0.0267,0.0247,0.0247,0.0247,0.0229,0.0229,0.0229,0.0213,0.0213,0.0212,0.0212,0.0194,0.0194,0.0193,0,0,0,0,0,0,0,0,0,0,0,0,0,0.0255,0.0267,0.0247,0.0237,0.0236,0.0229,0.0229,0.0228,0.0213,0.0213,0.0212,0.0212,0.0194,0.0194,0.0193,0.0196,0,0,0.0192,0.0192,0,0,0,0,0,0,0,0,0.0255,0.0254,0.0239,0.0237,0.0236,0.0223,0.0229,0.0217,0.0213,0.0222,0.0212,0.0212,0.0204,0.0203,0.02,0.0195,0.0194,0.0192,0.0191,0.0191,0.0191,0,0,0,0,0,0,0,0.0256,0.0254,0.024,0.0238,0.0237,0.0232,0.023,0.0227,0.0214,0.0221,0.022,0.0218,0.0203,0.02,0.0199,0.0194,0.0192,0.0191,0.0191,0.0191,0.0188,0.0188,0,0,0,0,0,0,0.0259,0.0255,0.0241,0.0239,0.0245,0.0232,0.023,0.0227,0.0214,0.0212,0.0218,0.0217,0.0201,0.02,0.0198,0.0199,0.0191,0.0191,0.019,0.0187,0.0188,0.0188,0,0,0,0,0,0,0.0259,0.0258,0.0241,0.0247,0.0245,0.0232,0.0229,0.0227,0.0224,0.0212,0.021,0.0217,0.0201,0.0199,0.0196,0.0198,0.0191,0.019,0.0187,0.0187,0.0188,0.0201,0,0,0,0,0,0,0.026,0.0258,0.0259,0.0247,0.0244,0.024,0.023,0.0227,0.0223,0.0222,0.0211,0.0209,0.0201,0.0197,0.0195,0.0197,0.019,0.0187,0.0187,0.0188,0.02,0.0202,0.0203,0,0,0,0,0,0.0261,0.0264,0.0259,0.0258,0.0246,0.024,0.0238,0.0228,0.0224,0.0224,0.0216,0.0209,0.0198,0.0197,0.0195,0.0197,0.0187,0.0187,0.0188,0.02,0.0201,0.0203,0,0,0,0,0,0,0.0277,0.0262,0.0257,0.0257,0.0249,0.0237,0.0238,0.0231,0.0225,0.0224,0.0212,0.021,0.0207,0.0202,0.02,0.0197,0.0191,0.0192,0.0201,0.0203,0.0204,0.0205,0.0189,0,0,0,0,0,0.028,0.0277,0.0264,0.0265,0.0262,0.025,0.0248,0.024,0.0233,0.023,0.0221,0.0214,0.0208,0.0205,0.02,0.0199,0.0196,0.02,0.0201,0.0202,0.0202,0.02,0.0201,0.0189,0.0189,0.0189,0,0,0.0288,0.0279,0.0278,0.0268,0.0262,0.0258,0.0248,0.0245,0.0242,0.0229,0.0225,0.0219,0.021,0.0207,0.0206,0.0202,0.0205,0.0203,0.0204,0.0203,0.02,0.0202,0.0203,0.019,0.019,0.019,0,0,0.0299,0.0293,0.0292,0.0286,0.0276,0.0268,0.0268,0.0256,0.0251,0.0247,0.0237,0.0232,0.0224,0.0217,0.0213,0.0219,0.0212,0.0218,0.0225,0.0222,0.0223,0.0224,0.0225,0.0226,0.0218,0.0218,0.0218,0,0.031,0.0304,0.0293,0.0289,0.0285,0.0273,0.0271,0.0265,0.0254,0.0251,0.0248,0.0235,0.0228,0.0223,0.0225,0.0222,0.022,0.0219,0.0224,0.0225,0.0225,0.0226,0.0227,0.0219,0.0219,0.0219,0.0219,0,0.0316,0.0312,0.0312,0.0301,0.0297,0.0294,0.0282,0.0279,0.0272,0.0264,0.0259,0.025,0.0242,0.024,0.0234,0.0234,0.0232,0.0226,0.022,0.0227,0.0228,0.0228,0.022,0.0219,0.0219,0.0219,0,0,0.0338,0.032,0.032,0.0314,0.0301,0.0298,0.0294,0.0285,0.0282,0.0275,0.0271,0.0263,0.0257,0.0252,0.0244,0.0243,0.0247,0.0237,0.0237,0.0238,0.0245,0.0249,0.0249,0.0242,0.0242,0.0242,0.0245,0,0.0346,0.0339,0.0329,0.0325,0.032,0.0308,0.0304,0.0296,0.0288,0.0283,0.0274,0.0268,0.0262,0.0258,0.0256,0.0247,0.0248,0.0246,0.0237,0.0237,0.024,0.025,0.0254,0.0258,0.0246,0.0246,0.0246,0,0.0355,0.0348,0.0343,0.0329,0.0327,0.0324,0.0315,0.031,0.0299,0.0294,0.0287,0.0278,0.0273,0.0267,0.026,0.0259,0.0254,0.0249,0.0249,0.0248,0.0242,0.0248,0.0259,0.0259,0.0246,0.0246,0.0246,0,0.037,0.0359,0.0354,0.035,0.0334,0.0332,0.0325,0.0315,0.0309,0.0301,0.0297,0.0289,0.0284,0.0277,0.0265,0.0263,0.0258,0.0252,0.0253,0.0253,0.0252,0.0253,0.0262,0.0251,0.0251,0.0251,0.0251,0,0.038,0.0378,0.036,0.0358,0.0354,0.0341,0.0338,0.033,0.032,0.0315,0.0304,0.03,0.0286,0.0279,0.027,0.0264,0.0262,0.0257,0.0255,0.0258,0.0258,0.0255,0.0254,0.0251,0.0251,0.0251,0.0251,0,0.0396,0.0385,0.0379,0.0364,0.036,0.0358,0.0344,0.0341,0.0332,0.0325,0.0323,0.0309,0.0301,0.0289,0.0277,0.0271,0.0266,0.0263,0.027,0.0268,0.0269,0.0269,0.0276,0.0276,0.0265,0.0266,0.0266,0,0.0403,0.0401,0.0385,0.0381,0.0374,0.0367,0.0362,0.0349,0.0343,0.0331,0.0328,0.0319,0.0311,0.0298,0.0286,0.0277,0.0273,0.0276,0.0271,0.0274,0.0272,0.0272,0.0271,0.0277,0.0277,0.0277,0.0277,0,0.0416,0.041,0.0403,0.0392,0.0386,0.0378,0.0369,0.0366,0.0351,0.0345,0.0336,0.0329,0.0317,0.0307,0.0296,0.0288,0.028,0.0279,0.0278,0.0281,0.0285,0.0282,0.0272,0.0279,0.0279,0.0279,0.0279,0.0278,0.0427,0.0424,0.0412,0.0403,0.0395,0.0386,0.0382,0.0372,0.0364,0.0352,0.0345,0.0336,0.0324,0.0308,0.0301,0.0294,0.029,0.029,0.029,0.029,0.029,0.0286,0.0292,0.0292,0.0292,0.0292,0.0292,0,0.0439,0.043,0.0422,0.0409,0.0402,0.0395,0.0384,0.0379,0.0371,0.0361,0.0352,0.0341,0.0332,0.0319,0.0308,0.0305,0.03,0.0302,0.0302,0.03,0.0294,0.0295,0.0306,0.0306,0.0306,0.0306,0.0306,0.0306,0.0444,0.0437,0.043,0.0418,0.041,0.0401,0.0395,0.0387,0.0378,0.0366,0.0358,0.035,0.0338,0.0326,0.0317,0.0313,0.031,0.0312,0.0308,0.0302,0.0301,0.03,0.0301,0.0312,0.0312,0.0314,0.0314,0.0314]},{"header":{"parameterUnit":"m.s-1","parameterCategory":1,"la1":30.2991,"la2":30.254,"lo1":-89.0895,"lo2":-89.0444,"dy":0.0017,"dx":0.0017,"nx":28,"ny":28,"refTime":"2025-05-25T21:00:00:Z","depth":0,"parameterNumber":3,"parameterNumberName":"V-component_of_WINDS"},"data":[0,0,0,0,0,0,0,0,0,0,0,0,0,0,0,0,0,0,0,0,0,0,0,0,0,0,0,0,0,0,0,0,0,0,0,0,0,0,0,0,0,0,0,0,0,0,0,0,0,0,0,0,0,0,0,0,0,0,4.9617,4.9617,0,4.9604,4.9604,4.9604,4.9517,4.9515,4.9513,4.9511,4.9499,4.9501,4.9502,0,0,0,0,0,0,0,0,0,0,0,0,0,4.9566,4.9567,4.9617,4.9617,4.9617,4.9604,4.9604,4.9604,4.9518,4.9515,4.9513,4.951,4.9499,4.9501,4.9503,0,0,0,0,0,0,0,0,0,0,0,0,0,4.9574,4.9568,4.9617,4.9572,4.9568,4.9604,4.9604,4.9604,4.9518,4.9515,4.9512,4.9509,4.9498,4.95,4.9503,4.9582,0,0,4.951,4.9511,0,0,0,0,0,0,0,0,4.9574,4.9576,4.9579,4.9575,4.9571,4.9559,4.9582,4.9596,4.9519,4.9537,4.9511,4.9508,4.9522,4.9522,4.9527,4.9581,4.958,4.9511,4.9512,4.9513,4.9514,0,0,0,0,0,0,0,4.9573,4.9576,4.9612,4.9579,4.9574,4.9552,4.955,4.9584,4.9548,4.9535,4.9529,4.9529,4.9519,4.9525,4.9526,4.958,4.951,4.9513,4.9514,4.9515,4.9697,4.97,0,0,0,0,0,0,4.9579,4.9576,4.9612,4.9612,4.9564,4.9556,4.9553,4.9566,4.9547,4.9541,4.9531,4.9525,4.9522,4.9523,4.9525,4.9615,4.9513,4.9515,4.9517,4.9693,4.9697,4.9701,0,0,0,0,0,0,4.9578,4.9583,4.9613,4.9592,4.9594,4.956,4.9575,4.9568,4.9573,4.9544,4.9537,4.9544,4.9519,4.9522,4.9568,4.9613,4.9517,4.9519,4.9689,4.9695,4.9699,4.9796,0,0,0,0,0,0,4.9577,4.9583,4.9613,4.9594,4.9596,4.9656,4.9578,4.957,4.9577,4.9569,4.9554,4.9548,4.9517,4.9564,4.957,4.9615,4.9521,4.9685,4.9692,4.9698,4.9788,4.9803,4.9816,0,0,0,0,0,4.9576,4.9641,4.9615,4.962,4.9632,4.9659,4.966,4.9623,4.9582,4.9611,4.9592,4.9549,4.9607,4.957,4.9576,4.9622,4.9682,4.969,4.9697,4.9782,4.98,4.9816,0,0,0,0,0,0,4.9668,4.9638,4.9609,4.967,4.9668,4.9644,4.968,4.9644,4.9653,4.9645,4.9598,4.9595,4.9648,4.964,4.9598,4.9696,4.9637,4.9646,4.97,4.9717,4.9731,4.9731,4.9523,0,0,0,0,0,4.9695,4.9719,4.9692,4.9749,4.9749,4.9715,4.9725,4.9697,4.9692,4.9691,4.9675,4.9673,4.9691,4.9703,4.9718,4.9787,4.9781,4.9821,4.9835,4.9847,4.9855,4.9889,4.9906,4.9726,4.9726,4.9726,0,0,4.9752,4.9739,4.9757,4.9767,4.9762,4.9787,4.9715,4.9745,4.9764,4.9696,4.9738,4.9727,4.9721,4.9778,4.9802,4.9772,4.9903,4.9856,4.9866,4.9867,4.9898,4.9915,4.9931,4.9731,4.973,4.9729,0,0,4.9869,4.9862,4.9907,4.9903,4.9896,4.9873,4.9884,4.9866,4.9855,4.9897,4.9846,4.9867,4.9899,4.9896,4.9899,5.0014,4.9974,5.002,5.0093,5.0127,5.0141,5.0153,5.0193,5.0208,5.0028,5.0029,5.0029,0,4.9941,4.9977,4.9935,4.9969,4.9974,4.9913,4.9958,4.9956,4.9955,4.996,4.9926,4.9963,4.9956,5.0011,5.0038,5.0043,5.0054,5.0021,5.0142,5.0154,5.0165,5.0202,5.0218,5.0034,5.0033,5.0033,5.0032,0,5.0065,5.0091,5.0129,5.0127,5.0137,5.0176,5.014,5.0155,5.0125,5.0106,5.0148,5.0136,5.0147,5.0158,5.013,5.0209,5.019,5.015,5.009,5.0188,5.0223,5.0237,5.0042,5.004,5.0038,5.0037,0,0,5.024,5.0214,5.0228,5.0226,5.0213,5.0232,5.0269,5.0278,5.0291,5.0292,5.0321,5.0349,5.0311,5.0314,5.0285,5.0315,5.0405,5.0271,5.027,5.0296,5.049,5.052,5.0538,5.0379,5.0381,5.0384,5.0491,0,5.0351,5.041,5.0373,5.0439,5.0461,5.0403,5.0435,5.043,5.0413,5.0429,5.041,5.043,5.0379,5.0381,5.0408,5.0389,5.0444,5.038,5.0405,5.0406,5.0407,5.0556,5.0587,5.0689,5.0504,5.0506,5.0508,0,5.0488,5.0493,5.0561,5.0542,5.055,5.0579,5.0584,5.0601,5.0594,5.0579,5.0583,5.0546,5.0579,5.0521,5.0566,5.0524,5.0532,5.0524,5.0527,5.0527,5.0462,5.0559,5.072,5.0736,5.0529,5.0527,5.0526,0,5.0607,5.0631,5.0674,5.0675,5.0654,5.0675,5.0668,5.0658,5.0665,5.067,5.0675,5.0684,5.0689,5.0697,5.0663,5.0624,5.0713,5.0652,5.0701,5.0702,5.0722,5.0721,5.0886,5.0729,5.0728,5.0728,5.0728,0,5.0734,5.0778,5.0727,5.0754,5.08,5.0757,5.0805,5.0791,5.0782,5.0805,5.0756,5.0778,5.0732,5.075,5.0724,5.0765,5.0768,5.0757,5.0749,5.0761,5.0762,5.0765,5.0757,5.0732,5.0731,5.0731,5.073,0,5.0875,5.0843,5.0886,5.0862,5.0857,5.0893,5.0872,5.0896,5.0874,5.0904,5.0908,5.0875,5.0893,5.086,5.0875,5.0857,5.0915,5.0897,5.0917,5.0911,5.0962,5.0957,5.1134,5.1155,5.0985,5.0987,5.0988,0,5.0958,5.0989,5.0969,5.098,5.0975,5.0994,5.1001,5.0959,5.0969,5.0963,5.0987,5.1001,5.101,5.1042,5.1019,5.103,5.1011,5.1072,5.1012,5.1022,5.1011,5.1009,5.1011,5.1084,5.1086,5.1088,5.1089,0,5.1108,5.109,5.1102,5.1108,5.1118,5.1122,5.1121,5.1133,5.109,5.1103,5.112,5.1127,5.1141,5.1155,5.116,5.1152,5.1114,5.1108,5.112,5.1132,5.1142,5.1136,5.0949,5.1104,5.1103,5.1102,5.1101,5.11,5.1221,5.1246,5.1234,5.1249,5.1244,5.1245,5.1265,5.1246,5.126,5.1267,5.1242,5.1266,5.1257,5.1259,5.1256,5.1273,5.1246,5.1264,5.1268,5.1273,5.128,5.114,5.1274,5.1274,5.1273,5.1273,5.1273,0,5.1367,5.1357,5.1371,5.1371,5.1383,5.1344,5.1342,5.1354,5.1375,5.137,5.1379,5.1399,5.1412,5.1391,5.14,5.1419,5.1401,5.1423,5.142,5.1419,5.1304,5.1293,5.1436,5.1436,5.1436,5.1436,5.1436,5.1436,5.1444,5.1484,5.1465,5.1501,5.1491,5.1512,5.1514,5.1514,5.1509,5.1533,5.1544,5.1529,5.1518,5.1526,5.1536,5.153,5.1535,5.1563,5.155,5.1443,5.1427,5.1412,5.1401,5.1565,5.1565,5.1663,5.1664,5.1665]}]]